Flag Weather past 2 weeks in Fort Bragg, California, U.S.A.

Now
67 °F

Sunny.


Feels Like: 67 °F
Forecast: 50 / 63 °F
Wind: No wind

Location: Ukiah Municipal

Current Time: Nov 26, 2014 at 3:43:58 PM

Latest Report: Nov 26, 2014 at 2:56 PM


Visibility: 10 mi

Pressure: 30.21 "Hg

Humidity: 47%

Dew point: 46 °F

Location of Fort BraggLocation

Historic Weather in Fort Bragg — Graph

°F

Fort Bragg temperature yesterday

Maximum temperature yesterday: 67 °F (at 1:56 PM)
Minimum temperature yesterday: 38 °F (at 6:56 AM)
Average temperature yesterday: 50 °F

Past Weeks' High & Low Weather Summary

 TemperatureHumidityPressure
High67 °F (Nov 25, 1:56 PM)97% (Nov 14, 12:01 AM)30.49 "Hg (Nov 14, 12:01 AM)
Low34 °F (Nov 17, 5:56 AM)27% (Nov 18, 3:56 PM)29.90 "Hg (Nov 11, 4:56 PM)
Average51 °F79%30.15 "Hg
* Reported Nov 11 2:56 PM — Nov 26 2:56 PM, Fort Bragg, Weather by CustomWeather, © 2014

Note: Actual official high and low records may vary slightly from our data, if they occured in-between our weather recording intervals... More about our weather records

Advertising

Fort Bragg weather history for previous 24 hours

 ConditionsComfort  
Time TempWeatherWind HumidityBarometerVisibility
2:56 PM
Nov 26
67 °FSunny.No wind47%30.21 "Hg10 mi
1:56 PM65 °FSunny.No wind51%30.21 "Hg10 mi
12:56 PM64 °FSunny.No wind49%30.22 "Hg10 mi
11:56 AM60 °FSunny.No wind56%30.26 "Hg10 mi
10:56 AM55 °FSunny.No wind67%30.29 "Hg10 mi
9:56 AM51 °FSunny.No wind77%30.32 "Hg10 mi
8:56 AM44 °FSunny.No wind85%30.33 "Hg10 mi
7:56 AM39 °FSunny.No wind93%30.32 "Hg10 mi
6:56 AM37 °FClear.No wind93%30.33 "Hg10 mi
5:56 AM38 °FClear.No wind90%30.33 "Hg10 mi
4:56 AM38 °FClear.No wind90%30.33 "Hg10 mi
3:56 AM40 °FClear.No wind86%30.33 "Hg10 mi
2:56 AM38 °FPassing clouds.No wind93%30.34 "Hg10 mi
1:56 AM40 °FClear.No wind93%30.34 "Hg10 mi
12:56 AM43 °FClear.3 mph89%30.33 "Hg10 mi
11:56 PM
Nov 25
42 °FFog.No wind89%30.34 "Hg2 mi
10:56 PM44 °FClear.No wind89%30.35 "Hg10 mi
9:56 PM46 °FFog.No wind89%30.36 "Hg6 mi
8:56 PM46 °FClear.No wind89%30.37 "Hg10 mi
7:56 PM50 °FClear.No wind80%30.37 "Hg10 mi
6:56 PM52 °FClear.No wind77%30.37 "Hg10 mi
5:56 PM55 °FClear.No wind69%30.36 "Hg10 mi
4:56 PM58 °FClear.No wind65%30.35 "Hg10 mi
3:56 PM61 °FSunny.6 mph58%30.35 "Hg10 mi
Weather by CustomWeather, © 2014

See weather overviewHow to use our weather pages